This demonstration page uses our WeatherBlox Daily Observations layout. Learn more.

Left ArrowRight Arrow

39.08367, -84.50855

Hourly Observations for April 26, 2018

Temp ( °F °C ) Dew Point ( °F °C ) Humidity (%) Winds ( mph kmh ) Pressure ( in mb ) Visibility ( mi km ) Precip ( " mm )
12:53 am 00:53 Clear 49 9.4 45 7.2 86 86 VRB 3 6 29.93 1014 10 16 N/A
1:53 am 01:53 Clear 50 10 38 3.3 63 63 N 7 11 29.94 1014 10 16 N/A
2:53 am 02:53 Clear 49 9.4 37 2.8 64 64 N 9 15 29.92 1013 10 16 N/A
3:53 am 03:53 Clear 48 8.9 35 1.7 61 61 N 5 7 29.91 1013 10 16 N/A
4:53 am 04:53 Clear 47 8.3 37 2.8 69 69 N N/A 29.91 1013 10 16 N/A
5:53 am 05:53 Clear 45 7.2 37 2.8 74 74 N N/A 29.91 1013 10 16 N/A
6:53 am 06:53 Sunny 43 6.1 35 1.7 74 74 NNE 3 6 29.91 1013 10 16 N/A
7:53 am 07:53 Sunny 45 7.2 39 3.9 80 80 NNE 3 6 29.91 1013 10 16 N/A
8:53 am 08:53 Sunny 50 10 38 3.3 63 63 NNE 3 6 29.92 1013 10 16 N/A
9:53 am 09:53 Sunny 52 11.1 39 3.9 61 61 N N/A 29.95 1014 10 16 N/A
10:53 am 10:53 Sunny 56 13.3 42 5.6 60 60 E 3 6 29.94 1014 10 16 N/A
11:53 am 11:53 Sunny 60 15.6 44 6.7 56 56 VRB 3 6 29.93 1014 10 16 N/A
12:53 pm 12:53 Sunny 63 17.2 43 6.1 48 48 SE 5 7 29.90 1013 10 16 N/A
1:53 pm 13:53 Sunny 66 18.9 41 5 40 40 WNW 7 11 29.88 1012 10 16 N/A
2:53 pm 14:53 Sunny 67 19.4 42 5.6 41 41 WSW 6 9 29.86 1011 10 16 N/A
3:53 pm 15:53 Sunny 67 19.4 37 2.8 33 33 NW 6 9 29.84 1010 10 16 N/A
4:53 pm 16:53 Sunny 67 19.4 36 2.2 32 32 N N/A 29.82 1010 10 16 N/A
5:53 pm 17:53 Sunny 67 19.4 35 1.7 31 31 N N/A 29.83 1010 10 16 N/A
6:53 pm 18:53 Sunny 65 18.3 43 6.1 45 45 W 3 6 29.84 1011 10 16 N/A
7:53 pm 19:53 Sunny 65 18.3 35 1.7 33 33 N N/A 29.83 1010 10 16 N/A
8:53 pm 20:53 Clear 59 15 47 8.3 64 64 N N/A 29.84 1010 10 16 N/A
9:53 pm 21:53 Clear 55 12.8 47 8.3 74 74 N N/A 29.85 1011 10 16 N/A
10:53 pm 22:53 Clear 50 10 46 7.8 86 86 N N/A 29.84 1011 10 16 N/A
11:53 pm 23:53 Clear 49 9.4 45 7.2 86 86 N N/A 29.83 1010 10 16 N/A

Powered by AerisWeather